Wind_Speed
40 41 40 38 40 40 40 38 35 35 36 35 33 31 31 30 28 27 26 25 25 25 24 24 23 23 23 23 23 23 23 23 24 25 26 27 28 29 29 30 31 32 32 33
41 39 36 39 41 41 40 38 37 36 37 36 34 32 31 30 29 28 26 25 26 26 25 24 24 24 24 24 24 24 24 24 25 26 27 28 28 29 30 31 32 32 33 33
39 36 37 40 41 40 39 38 36 36 38 38 36 33 31 30 29 28 26 26 26 26 25 25 24 24 24 25 25 25 25 26 26 27 28 29 29 30 31 32 33 33 34 34
39 37 39 40 39 39 38 37 37 37 38 37 37 34 28 30 28 28 27 26 26 26 26 25 25 25 25 26 26 26 26 27 28 28 29 30 31 32 33 33 34 35 35 35
37 35 37 38 37 38 37 37 38 38 39 38 36 36 27 28 27 28 27 26 26 26 26 26 26 26 26 27 27 27 28 28 29 30 31 31 32 33 34 35 36 36 37 37
36 36 37 36 37 38 38 37 38 39 40 39 32 36 30 26 27 28 27 26 26 27 26 27 27 26 27 27 28 28 29 30 30 31 32 33 34 35 36 36 37 38 38 39
35 36 36 36 36 37 37 37 38 39 39 37 33 36 31 26 27 28 27 26 26 26 26 26 26 26 27 28 29 29 30 31 32 32 33 34 35 36 37 38 39 39 40 40
36 36 36 35 34 35 35 37 38 38 39 37 35 35 30 26 26 27 27 26 26 25 26 26 27 27 27 28 29 30 31 32 33 34 35 36 37 38 39 40 40 41 41 42
36 35 34 34 33 36 37 37 36 38 39 38 37 35 30 26 26 26 26 26 25 25 25 26 26 27 28 29 30 31 32 33 34 35 36 37 39 40 41 42 42 43 43 44
35 36 35 35 35 37 37 35 36 38 38 37 36 33 29 26 26 26 26 26 26 25 25 26 27 28 29 30 31 32 33 35 36 37 38 39 40 41 42 43 44 45 45 46
35 36 35 35 35 34 35 35 36 37 38 37 36 31 28 26 25 25 25 25 25 25 25 26 28 29 30 31 32 33 35 36 37 38 40 41 42 43 44 45 46 46 47 48
34 35 35 35 35 36 36 36 36 37 37 36 35 32 27 27 26 26 26 26 26 26 26 27 29 30 31 32 33 34 36 37 39 40 42 43 44 45 46 47 47 48 49 49
35 36 35 35 36 36 36 34 34 35 36 36 34 30 26 27 28 29 28 27 27 27 28 29 30 31 33 34 35 36 37 39 41 42 44 45 46 47 48 48 49 50 50 51
35 36 35 33 31 31 33 33 34 35 36 35 32 29 27 28 30 31 30 30 30 29 29 30 31 33 34 36 37 38 39 41 42 44 45 46 48 48 49 50 50 51 52 53
36 35 34 33 33 33 33 33 34 36 35 34 31 30 28 29 32 33 32 31 31 31 31 32 33 34 36 37 39 40 41 43 44 46 47 48 49 50 50 51 52 53 54 54
37 36 35 34 34 35 35 34 34 34 34 33 32 30 27 31 33 33 33 33 33 33 34 34 35 36 37 38 40 41 43 44 46 47 48 49 50 51 52 53 53 54 54 55
38 37 36 35 34 36 37 34 34 34 33 33 34 30 30 33 34 34 34 35 35 35 37 37 38 39 40 40 41 43 44 45 47 48 49 50 51 52 52 53 54 54 55 56
39 38 37 37 36 40 34 32 33 34 33 33 33 32 32 34 35 36 35 36 37 38 40 41 41 41 42 42 43 44 46 46 48 49 49 51 51 52 53 53 54 55 56 57
39 39 39 39 38 37 35 32 31 33 33 33 34 33 34 35 36 36 36 38 39 40 41 42 42 43 43 44 45 46 47 48 49 49 50 51 52 52 53 54 55 56 57 58
40 40 40 40 40 38 33 32 33 35 35 32 34 35 36 37 37 36 38 39 40 41 41 42 43 44 44 45 45 46 47 48 48 49 50 51 52 53 54 54 55 56 57 59
41 41 41 40 39 38 35 33 33 36 33 32 35 36 36 37 38 38 39 40 40 41 41 42 42 43 43 44 45 46 46 47 48 49 50 51 52 53 54 55 56 57 59 60
39 40 40 39 40 37 33 34 34 34 34 35 35 36 37 38 38 38 39 40 40 40 41 41 42 42 43 44 45 46 47 48 49 50 51 51 52 53 54 55 57 58 61 62
39 39 38 38 37 34 34 34 35 35 35 35 36 36 37 37 38 38 39 39 39 40 40 41 41 42 43 45 46 47 48 48 49 49 50 51 52 53 55 56 58 60 63 65
36 37 38 38 37 36 35 35 35 36 36 36 36 36 36 36 37 37 38 38 39 40 40 41 42 43 44 45 46 46 47 48 49 49 50 51 53 54 55 57 60 62 65 68
36 36 37 37 36 36 36 35 36 36 37 37 37 37 37 37 37 37 38 39 39 40 41 43 44 44 44 45 46 47 48 48 49 50 51 52 53 54 56 59 62 65 68 72
38 37 37 36 35 37 36 37 38 38 37 37 37 37 37 37 37 38 38 39 41 41 42 43 44 44 45 46 46 47 48 48 49 50 51 52 54 56 59 61 64 67 71 74
Wind_Direction
244 244 245 245 246 246 248 249 251 252 254 255 256 259 261 262 264 265 265 264 263 262 262 263 263 263 264 267 269 271 273 276 278 281 283 284 285 287 288 289 290 290 289 288
244 245 244 243 245 247 248 249 250 251 254 255 255 257 260 262 262 263 263 262 261 261 261 260 261 261 262 264 267 270 273 276 279 281 283 284 286 287 288 290 291 291 290 288
245 244 242 243 244 246 246 247 248 251 254 257 256 255 257 260 261 261 261 259 259 259 259 259 259 259 261 263 265 269 272 276 279 281 283 285 286 288 289 290 291 291 290 289
244 242 242 243 244 246 246 247 249 250 253 256 258 256 253 258 260 260 258 257 256 257 257 257 258 259 261 263 266 269 273 276 279 282 284 286 287 289 291 292 292 291 290 289
244 242 243 244 244 245 245 247 249 250 252 254 257 259 249 255 259 259 258 257 256 257 257 257 257 259 261 263 267 270 273 276 279 282 284 286 288 289 291 292 293 292 290 288
241 240 241 242 241 243 245 246 248 250 252 254 254 259 255 253 256 258 258 258 258 258 257 257 258 259 261 264 267 271 274 276 279 282 284 287 289 290 291 293 293 292 291 289
243 242 242 242 241 242 244 245 247 249 251 254 252 256 260 257 256 256 258 259 259 259 258 257 258 259 262 265 268 272 275 277 280 283 285 288 289 291 292 293 294 293 292 290
241 241 242 242 241 241 242 243 245 249 251 253 253 255 258 259 257 256 257 258 259 258 258 258 259 261 263 266 270 273 275 278 281 284 286 288 290 291 292 293 294 293 292 291
240 241 239 240 238 238 239 241 244 248 251 253 253 256 257 257 256 256 257 258 258 258 259 259 260 262 265 268 270 274 277 279 282 285 287 289 290 291 293 293 294 293 293 291
238 238 236 236 236 237 239 240 242 246 251 253 254 255 258 256 256 257 258 259 259 260 260 261 262 264 266 269 272 275 278 280 283 285 287 289 291 292 293 294 294 294 293 292
236 238 235 235 237 238 240 240 242 246 250 252 255 257 259 259 257 257 257 257 259 260 262 263 264 266 269 272 274 276 279 282 284 286 288 290 291 292 293 294 294 293 293 293
234 237 237 235 235 236 238 239 242 244 249 252 255 257 258 259 259 259 259 259 260 262 264 265 267 269 271 274 276 278 281 283 285 287 289 290 292 293 294 294 294 294 293 293
234 237 238 237 237 238 240 242 244 245 248 250 253 257 256 257 259 260 261 261 262 264 266 268 270 272 274 276 278 280 282 284 285 287 289 291 292 293 294 294 294 294 294 293
234 238 240 243 244 243 242 242 244 246 248 252 255 257 255 256 257 259 261 263 265 266 268 270 272 275 277 279 280 282 283 285 286 288 289 291 292 293 294 294 294 294 294 294
235 238 241 241 240 240 241 242 243 246 250 253 253 253 254 256 257 259 263 266 267 269 271 273 275 277 279 280 282 283 284 286 287 288 289 290 292 293 293 294 294 294 295 295
237 239 240 241 242 243 243 242 243 246 249 253 253 253 255 256 258 262 265 268 270 272 274 275 277 279 280 281 282 284 285 286 287 289 289 291 292 293 293 294 294 295 295 296
237 239 240 241 242 244 244 243 246 249 252 254 256 256 254 255 260 264 267 269 271 274 276 278 280 281 281 282 283 284 286 287 288 289 290 291 292 293 293 294 295 295 296 297
236 238 240 241 242 245 249 247 248 251 252 254 256 256 255 258 261 264 267 270 272 274 276 278 280 281 282 283 284 286 287 288 289 289 290 291 292 293 293 294 295 296 296 297
235 238 240 242 244 248 249 250 250 252 252 255 258 259 259 261 262 265 268 270 273 275 277 278 280 281 282 284 285 286 287 288 289 290 291 292 292 293 294 295 296 296 297 299
235 238 240 243 246 249 251 252 253 254 254 256 259 260 261 262 264 267 269 271 274 276 277 279 280 281 282 283 285 286 288 289 290 291 291 292 292 293 294 295 296 297 298 300
236 238 242 246 249 251 253 254 255 256 259 258 257 259 261 264 267 269 271 273 275 277 278 279 280 281 282 283 285 287 288 289 290 291 291 292 293 295 296 296 297 298 300 301
236 239 242 245 248 251 256 258 258 259 258 258 259 261 263 266 269 271 273 274 276 277 278 280 281 282 283 285 286 288 289 290 291 292 292 294 295 295 296 297 298 300 301 302
235 239 244 246 251 254 253 256 258 258 259 261 262 264 266 268 270 272 274 275 276 278 279 281 282 283 285 286 288 289 290 291 292 293 293 295 296 296 297 299 300 301 302 303
235 238 241 244 248 250 252 254 257 260 262 264 265 267 268 270 272 273 275 276 278 279 281 282 283 285 287 288 289 290 291 292 293 294 295 296 296 297 299 300 301 303 304 305
235 238 242 246 248 250 252 255 258 261 263 264 266 268 270 271 273 275 277 279 280 282 283 284 286 287 287 289 290 291 292 293 294 295 296 297 298 299 300 301 303 304 305 306
236 240 244 248 249 250 252 255 258 261 263 264 266 268 271 273 275 277 279 281 282 284 285 286 287 288 289 290 291 292 293 294 295 296 297 298 299 300 301 302 304 305 307 308
Height
5793 5797 5801 5804 5805 5807 5808 5810 5813 5814 5813 5815 5816 5818 5818 5817 5818 5818 5817 5817 5816 5816 5816 5816 5815 5815 5814 5814 5814 5813 5813 5812 5811 5810 5808 5807 5805 5803 5801 5798 5796 5793 5791 5788
5785 5789 5794 5793 5795 5798 5800 5803 5805 5806 5805 5807 5809 5811 5811 5811 5811 5811 5811 5811 5810 5810 5810 5810 5809 5809 5809 5808 5808 5808 5807 5806 5805 5804 5802 5801 5798 5796 5794 5791 5789 5786 5783 5780
5777 5783 5783 5784 5787 5790 5792 5795 5797 5798 5797 5798 5800 5804 5804 5804 5804 5805 5805 5804 5804 5804 5803 5803 5803 5803 5803 5802 5802 5802 5801 5800 5799 5797 5796 5794 5791 5789 5787 5784 5781 5778 5775 5773
5767 5772 5774 5776 5779 5782 5785 5787 5788 5789 5789 5791 5792 5795 5799 5797 5797 5797 5798 5798 5797 5797 5797 5797 5797 5797 5796 5796 5796 5795 5794 5793 5792 5790 5788 5786 5784 5782 5779 5776 5773 5770 5767 5764
5760 5764 5766 5768 5773 5774 5777 5778 5780 5781 5781 5783 5784 5785 5792 5790 5790 5790 5790 5791 5791 5790 5790 5790 5790 5790 5790 5790 5789 5788 5787 5786 5785 5783 5781 5779 5777 5774 5771 5768 5765 5762 5759 5756
5752 5755 5757 5761 5764 5766 5768 5770 5771 5772 5772 5775 5779 5776 5782 5784 5783 5783 5783 5784 5783 5783 5784 5783 5784 5784 5783 5783 5782 5781 5780 5779 5777 5775 5773 5771 5768 5766 5763 5760 5757 5754 5750 5747
5743 5746 5749 5752 5755 5758 5760 5762 5763 5763 5764 5768 5771 5769 5774 5777 5776 5776 5776 5777 5776 5776 5776 5777 5777 5777 5776 5776 5775 5774 5773 5771 5769 5767 5765 5763 5760 5757 5754 5751 5748 5744 5741 5737
5734 5738 5741 5744 5747 5750 5752 5754 5756 5757 5758 5760 5761 5762 5768 5769 5768 5768 5769 5769 5769 5769 5770 5770 5770 5769 5769 5768 5767 5766 5765 5763 5761 5759 5756 5754 5751 5748 5745 5742 5738 5735 5731 5727
5726 5730 5734 5736 5739 5740 5742 5745 5748 5749 5749 5751 5753 5755 5759 5761 5761 5761 5762 5762 5762 5762 5762 5762 5762 5762 5761 5760 5759 5758 5756 5755 5752 5750 5747 5745 5741 5738 5735 5731 5728 5724 5721 5717
5717 5721 5725 5727 5729 5731 5735 5738 5739 5739 5741 5743 5745 5748 5752 5754 5754 5754 5755 5754 5755 5755 5755 5755 5754 5754 5753 5752 5751 5750 5748 5746 5743 5741 5738 5735 5732 5728 5725 5721 5717 5714 5710 5706
5709 5712 5716 5719 5722 5726 5728 5730 5731 5732 5734 5736 5737 5743 5745 5745 5746 5747 5747 5747 5747 5748 5748 5747 5747 5746 5745 5744 5743 5741 5739 5736 5734 5731 5728 5725 5722 5718 5714 5710 5706 5702 5698 5694
5700 5703 5707 5711 5715 5716 5718 5721 5723 5726 5727 5728 5730 5737 5736 5737 5738 5738 5739 5739 5740 5740 5740 5739 5739 5738 5736 5735 5734 5732 5730 5727 5724 5721 5718 5715 5711 5707 5703 5699 5695 5691 5686 5682
5692 5695 5698 5701 5706 5708 5710 5714 5716 5718 5719 5720 5722 5729 5729 5729 5729 5730 5730 5731 5732 5732 5732 5731 5730 5729 5727 5726 5724 5722 5720 5717 5714 5711 5707 5704 5700 5696 5692 5687 5683 5679 5674 5669
5684 5687 5691 5695 5699 5701 5703 5707 5708 5709 5710 5713 5716 5720 5721 5721 5721 5721 5722 5722 5723 5723 5723 5722 5721 5720 5718 5716 5714 5712 5709 5706 5703 5700 5696 5693 5689 5684 5680 5676 5671 5666 5661 5657
5675 5679 5683 5687 5690 5692 5695 5697 5699 5700 5703 5706 5709 5711 5713 5712 5712 5712 5713 5713 5714 5714 5714 5713 5712 5711 5709 5707 5704 5701 5698 5695 5692 5689 5685 5681 5677 5672 5668 5663 5658 5653 5648 5643
5667 5671 5675 5678 5681 5683 5685 5688 5690 5693 5695 5697 5700 5703 5705 5703 5703 5704 5704 5704 5705 5704 5704 5703 5702 5701 5699 5696 5694 5691 5687 5684 5681 5677 5673 5669 5665 5660 5655 5650 5645 5640 5635 5630
5659 5663 5667 5670 5673 5673 5675 5681 5683 5685 5688 5690 5691 5696 5695 5694 5695 5695 5695 5695 5695 5695 5694 5693 5691 5690 5688 5685 5683 5680 5676 5673 5669 5665 5661 5657 5652 5647 5642 5637 5632 5627 5622 5616
5651 5654 5658 5661 5664 5663 5672 5674 5675 5677 5679 5681 5682 5685 5685 5686 5686 5686 5686 5686 5685 5684 5683 5682 5680 5679 5676 5674 5671 5668 5665 5661 5657 5653 5649 5644 5640 5635 5630 5624 5619 5613 5608 5602
5642 5646 5649 5651 5653 5656 5662 5665 5668 5669 5671 5673 5673 5675 5676 5676 5676 5677 5677 5676 5675 5674 5672 5671 5669 5667 5665 5662 5659 5656 5653 5649 5645 5641 5636 5632 5627 5622 5617 5611 5606 5600 5594 5588
5633 5636 5640 5642 5644 5647 5655 5658 5659 5660 5661 5666 5664 5665 5665 5665 5666 5668 5666 5665 5664 5663 5661 5659 5657 5655 5653 5650 5647 5644 5641 5637 5632 5628 5623 5619 5614 5609 5603 5598 5592 5586 5580 5574
5623 5627 5630 5633 5635 5639 5645 5648 5650 5652 5655 5656 5654 5654 5655 5655 5656 5656 5655 5654 5653 5651 5650 5648 5646 5643 5641 5638 5635 5632 5628 5624 5620 5615 5611 5606 5600 5595 5590 5584 5578 5572 5566 5559
5614 5618 5621 5624 5626 5633 5638 5638 5640 5642 5643 5643 5644 5644 5645 5645 5644 5644 5643 5642 5641 5640 5638 5636 5634 5632 5629 5626 5623 5620 5616 5612 5607 5603 5598 5592 5587 5581 5576 5570 5564 5557 5550 5544
5605 5610 5614 5617 5621 5625 5627 5628 5629 5630 5632 5632 5633 5634 5634 5634 5634 5633 5632 5631 5630 5628 5627 5624 5622 5620 5617 5614 5611 5607 5603 5599 5594 5589 5584 5579 5574 5568 5562 5556 5549 5543 5535 5527
5597 5601 5604 5607 5610 5614 5616 5617 5619 5620 5621 5622 5622 5623 5623 5623 5623 5622 5621 5620 5619 5617 5615 5613 5610 5608 5605 5601 5598 5594 5590 5585 5581 5576 5571 5566 5560 5554 5548 5541 5534 5527 5519 5510
5588 5591 5594 5597 5602 5604 5606 5608 5609 5610 5610 5611 5612 5612 5612 5612 5612 5611 5610 5608 5607 5605 5603 5601 5598 5595 5592 5588 5584 5580 5576 5572 5568 5563 5558 5552 5546 5540 5534 5527 5519 5511 5503 5491
5579 5583 5586 5590 5594 5595 5597 5598 5599 5600 5601 5601 5602 5602 5602 5601 5601 5600 5598 5597 5595 5593 5591 5588 5585 5582 5579 5575 5571 5567 5563 5559 5554 5549 5544 5538 5532 5526 5519 5512 5505 5496 5485 5475